Newport News, VA

11:00 PM EST on November 21, 2017 (GMT -0500)
Newport News-Williamsburg International

Weather History for KPHF - February, 2014

Change the Weather History Date:

Friday, February 14, 2014

  Actual Average Record
Temperature  
Mean Temperature 48 °F -  
Max Temperature 60 °F 47 °F 80 °F (1951)
Min Temperature 37 °F 29 °F 15 °F (2016)
Degree Days  
Heating Degree Days 16    
Moisture  
Dew Point 28 °F    
Average Humidity 49    
Maximum Humidity 73    
Minimum Humidity 27    
Precipitation  
Precipitation 0.00 in - - ()
Sea Level Pressure  
Sea Level Pressure 29.68 in    
Wind  
Wind Speed 14 mph (WSW)    
Max Wind Speed 24 mph    
Max Gust Speed 31 mph    
Visibility 10 miles    
Events      
Averages and records for this station are not official NWS values.
T = Trace of Precipitation, MM = Missing Value Source: NWS Daily Summary

Daily Weather History Graph

Daily Weather History Graph

Search for Another Location

Airport or City:

Trip Planner

Search our weather history database for the weather conditions in past years. The results will help you decide how hot, cold, wet, or windy it might be!

Date:

Astronomy

Feb. 14, 2014 Rise Set
Actual Time 6:55 AM EST 5:44 PM EST
Civil Twilight 6:29 AM EST 6:11 PM EST
Nautical Twilight 5:58 AM EST 6:42 PM EST
Astronomical Twilight 5:28 AM EST 7:12 PM EST
Moon 5:45 PM EST (2/14) 6:22 AM EST (2/14)
Length of Visible Light 11h 42m
Length of Day
10h 48m
Full, 100% of the Moon is Illuminated
Feb 14
Full
Feb 14
Full
Feb 22
Last Quarter
Mar 1
New
Mar 8
First Quarter

Hourly Weather History & Observations

Time (EST) Temp. Windchill Dew Point Humidity Pressure Visibility Wind Dir Wind Speed Gust Speed Precip Events Conditions
12:54 AM 39.9 °F 32.1 °F 32.0 °F 73% 29.49 in 10.0 mi West 13.8 mph 21.9 mph N/A   Clear
1:54 AM 39.9 °F 32.1 °F 30.0 °F 68% 29.53 in 10.0 mi West 13.8 mph - N/A   Clear
2:54 AM 39.9 °F 31.8 °F 28.9 °F 65% 29.55 in 10.0 mi West 15.0 mph 25.3 mph N/A   Clear
3:54 AM 39.0 °F 30.3 °F 28.0 °F 65% 29.59 in 10.0 mi WSW 16.1 mph 24.2 mph N/A   Clear
4:54 AM 37.9 °F 30.0 °F 28.0 °F 68% 29.62 in 10.0 mi WSW 12.7 mph - N/A   Clear
5:54 AM 39.0 °F 29.9 °F 26.1 °F 60% 29.66 in 10.0 mi WSW 17.3 mph 23.0 mph N/A   Clear
6:54 AM 39.0 °F 30.6 °F 26.1 °F 60% 29.68 in 10.0 mi WSW 15.0 mph 23.0 mph N/A   Clear
7:54 AM 41.0 °F 32.5 °F 26.1 °F 55% 29.69 in 10.0 mi WSW 17.3 mph - N/A   Clear
8:54 AM 45.0 °F 37.6 °F 27.0 °F 49% 29.70 in 10.0 mi WSW 17.3 mph - N/A   Clear
9:54 AM 50.0 °F - 27.0 °F 41% 29.70 in 10.0 mi WSW 19.6 mph 27.6 mph N/A   Clear
10:54 AM 52.0 °F - 28.9 °F 41% 29.68 in 10.0 mi WSW 24.2 mph 31.1 mph N/A   Clear
11:54 AM 54.0 °F - 28.9 °F 38% 29.68 in 10.0 mi WSW 23.0 mph 28.8 mph N/A   Clear
12:54 PM 57.0 °F - 28.9 °F 34% 29.66 in 10.0 mi WSW 20.7 mph 26.5 mph N/A   Clear
1:54 PM 59.0 °F - 28.0 °F 31% 29.67 in 10.0 mi WSW 13.8 mph 26.5 mph N/A   Clear
2:54 PM 60.1 °F - 26.1 °F 27% 29.68 in 10.0 mi West 18.4 mph 27.6 mph N/A   Clear
3:54 PM 59.0 °F - 26.1 °F 28% 29.69 in 10.0 mi WSW 18.4 mph 24.2 mph N/A   Clear
4:54 PM 57.9 °F - 26.1 °F 30% 29.71 in 10.0 mi WSW 13.8 mph - N/A   Clear
5:54 PM 54.0 °F - 24.1 °F 31% 29.73 in 10.0 mi WSW 6.9 mph - N/A   Clear
6:54 PM 46.9 °F - 27.0 °F 46% 29.75 in 10.0 mi Calm Calm - N/A   Clear
7:54 PM 43.0 °F - 26.1 °F 51% 29.75 in 10.0 mi Calm Calm - N/A   Clear
8:54 PM 41.0 °F 39.0 °F 30.0 °F 65% 29.76 in 10.0 mi South 3.5 mph - N/A   Clear
9:54 PM 48.0 °F - 30.0 °F 50% 29.76 in 10.0 mi SW 9.2 mph - N/A   Clear
10:54 PM 46.9 °F - 30.9 °F 54% 29.75 in 10.0 mi SSW 5.8 mph - N/A   Clear
11:54 PM 46.9 °F - 30.9 °F 54% 29.73 in 10.0 mi Calm Calm - N/A   Clear